Location: Cypress Hills Dark-Sky Preserve - CHICO
(49.6176°N, 110.2634°W)
Time: 08:40:15
(UTC-06:00)

Amateur Radio Satellites - All Passes

Search period start: 29 August 2015 08:10
Search period end: 30 August 2015 08:10
Location: Cypress Hills Dark-Sky Preserve - CHICO, 49.6176°N, 110.2634°W

Satellite Date Start Highest point End Downlink Frequencies (MHz)
Time Altitude Azimuth
DOVE 4 29 Aug 08:12:14 08:14:03 12° 82° (E) 08:16:09 437.250
CUBESAT XI-V 29 Aug 08:17:16 08:18:40 11° 277° (W) 08:19:49 437.345
AIST 1 29 Aug 08:20:23 08:23:30 21° 88° (E) 08:26:43
PRISM 29 Aug 08:21:13 08:24:58 33° 263° (W) 08:28:41 437.425
CUTE-I 29 Aug 08:27:15 08:32:29 60° 290° (WNW) 08:37:43 437.470
STRAND 1 29 Aug 08:29:09 08:33:33 28° 267° (W) 08:37:55 437.568
BRITE-PL 29 Aug 08:35:25 08:40:33 45° 97° (E) 08:45:57 437.365/2234.400
HO-68 29 Aug 08:42:49 08:47:59 21° 87° (E) 08:53:22 435.675
CANX-2 29 Aug 08:49:01 08:51:26 15° 87° (E) 08:53:59 2200.000
Cosmos 2491 29 Aug 08:49:47 08:56:42 29° 81° (E) 09:03:52 435.465 / 435.565
AUBIESAT-1 29 Aug 08:58:52 09:01:16 14° 50° (NE) 09:03:47 437.475
M-CUBED/EXP-1 PRIME 29 Aug 09:00:37 09:03:34 17° 52° (NE) 09:06:36 437.505
PHONESAT 2.4 29 Aug 09:03:54 09:05:59 16° 169° (S) 09:08:06 2401.200-2431.200
SO-50 29 Aug 09:04:55 09:09:01 25° 28° (NNE) 09:13:06 436.795
ANTELSAT 29 Aug 09:07:06 09:08:21 11° 54° (NE) 09:09:50 437.575/2403.000
SEEDS 29 Aug 09:15:21 09:18:25 20° 90° (E) 09:21:35 437.485
Cosmos 2504 29 Aug 09:15:36 09:21:06 19° 49° (NE) 09:26:49 435.465 / 435.565
VERMONT LUNAR 29 Aug 09:17:05 09:18:01 11° 194° (SSW) 09:18:54 437.305
CINEMA 3 29 Aug 09:18:08 09:21:49 21° 88° (E) 09:25:36 145.822/145.860
GOMX 1 29 Aug 09:19:29 09:24:50 65° 101° (E) 09:30:19 467.674
Cubesat XI-IV 29 Aug 09:21:59 09:26:16 25° 300° (WNW) 09:30:27 437.490
CUBEBUG 2 29 Aug 09:29:42 09:31:22 12° 83° (E) 09:33:15 437.445
COMPASS 1 29 Aug 09:41:50 09:45:28 28° 94° (E) 09:49:06 437.405
UWE-3 29 Aug 09:42:45 09:44:32 12° 84° (E) 09:46:32 435.000/436.395/437.385
DOVE 4 29 Aug 09:47:28 09:52:47 73° 101° (ESE) 09:58:07 437.250
FUNcube-1 29 Aug 09:50:24 09:50:52 10° 82° (E) 09:51:36 145.935
PCSat 29 Aug 09:51:26 09:55:25 20° 27° (NNE) 09:59:29 145.827
YUBILEINY 29 Aug 09:53:03 10:01:48 64° 267° (W) 10:10:25 435.215
AAUSAT CUBESAT 2 29 Aug 09:54:36 09:58:20 32° 95° (E) 10:02:05 437.432
UNISAT 6 29 Aug 09:54:56 09:58:49 27° 64° (ENE) 10:02:49 437.425
AIST 1 29 Aug 09:56:49 10:00:54 43° 286° (WNW) 10:04:59
POLYITAN 1 29 Aug 10:03:51 10:05:48 13° 58° (ENE) 10:07:57 437.675
POPSAT HIP 1 29 Aug 10:07:27 10:09:34 14° 58° (ENE) 10:11:50 437.405
CUTE-I 29 Aug 10:09:30 10:11:38 12° 309° (NW) 10:13:32 437.470
CUTE 1.7 + AOD 2 29 Aug 10:10:01 10:14:17 85° 103° (ESE) 10:18:31 437.475
DUCHIFAT 1 29 Aug 10:10:28 10:12:40 14° 58° (ENE) 10:14:59 145.980
BRITE-PL 29 Aug 10:14:11 10:18:58 34° 294° (WNW) 10:23:55 437.365/2234.400
CUSAT 1 29 Aug 10:18:07 10:23:54 26° 60° (ENE) 10:30:30 437.405
QB50P2 29 Aug 10:22:37 10:25:37 19° 61° (ENE) 10:28:43 145.880/145.840
CANX-2 29 Aug 10:23:37 10:27:51 64° 287° (WNW) 10:32:01 2200.000
TIGRISAT 29 Aug 10:24:01 10:28:27 45° 69° (ENE) 10:32:59 435.000
DANDE 29 Aug 10:25:05 10:30:01 21° 58° (ENE) 10:35:52 436.750
NANOSAT C BR1 29 Aug 10:25:55 10:28:57 20° 62° (ENE) 10:32:04 145.865
HO-68 29 Aug 10:29:29 10:36:45 88° 289° (WNW) 10:43:59 435.675
AUBIESAT-1 29 Aug 10:30:33 10:35:18 74° 67° (ENE) 10:39:58 437.475
BUGSAT 1 29 Aug 10:30:56 10:33:00 14° 59° (ENE) 10:35:14 437.445
M-CUBED/EXP-1 PRIME 29 Aug 10:32:55 10:37:45 87° 69° (ENE) 10:42:32 437.505
QB50P1 29 Aug 10:37:49 10:41:17 25° 64° (ENE) 10:44:50 145.935-145.965
DELFI C3 29 Aug 10:39:22 10:42:51 29° 94° (E) 10:46:22 145.870
ANTELSAT 29 Aug 10:39:39 10:44:17 64° 72° (ENE) 10:48:59 437.575/2403.000
Oscar 11 29 Aug 10:40:10 10:44:20 45° 98° (E) 10:48:29 145.826/435.025
PHONESAT 2.4 29 Aug 10:40:51 10:43:10 17° 186° (S) 10:45:28 2401.200-2431.200
Cosmos 2491 29 Aug 10:44:09 10:52:51 75° 283° (WNW) 11:01:37 435.465 / 435.565
SO-50 29 Aug 10:45:13 10:50:15 87° 54° (NE) 10:55:09 436.795
SEEDS 29 Aug 10:50:26 10:54:30 47° 290° (WNW) 10:58:30 437.485
HUMSAT D 29 Aug 10:50:39 10:53:24 17° 88° (E) 10:56:15 437.325/437.525
CINEMA 3 29 Aug 10:54:28 10:59:28 62° 288° (WNW) 11:04:22 145.822/145.860
GOMX 1 29 Aug 10:58:18 11:02:35 24° 298° (WNW) 11:06:49 467.674
CUBEBUG 2 29 Aug 11:04:06 11:08:54 85° 106° (ESE) 11:13:33 437.445
Cosmos 2504 29 Aug 11:06:48 11:15:24 66° 75° (ENE) 11:23:36 435.465 / 435.565
VELOX 1 29 Aug 11:09:59 11:10:11 10° 84° (E) 11:10:39 145.980
ZACube-1 29 Aug 11:16:46 11:21:21 71° 102° (ESE) 11:25:49 437.345
UWE-3 29 Aug 11:17:09 11:21:51 90° 102° (ESE) 11:26:25 435.000/436.395/437.385
COMPASS 1 29 Aug 11:17:25 11:21:09 32° 293° (WNW) 11:24:50 437.405
ISS 29 Aug 11:18:06 11:21:07 36° 149° (SSE) 11:24:10 145.825
FUNcube-1 29 Aug 11:23:30 11:28:05 80° 102° (ESE) 11:32:32 145.935
DOVE 4 29 Aug 11:26:04 11:30:03 21° 300° (WNW) 11:33:55 437.250
AAUSAT CUBESAT 2 29 Aug 11:30:17 11:33:52 28° 294° (WNW) 11:37:23 437.432
UNISAT 6 29 Aug 11:30:53 11:35:24 45° 262° (W) 11:39:57 437.425
PCSat 29 Aug 11:34:28 11:39:53 67° 50° (NE) 11:45:18 145.827
POLYITAN 1 29 Aug 11:36:49 11:41:06 89° 255° (WSW) 11:45:26 437.675
50 SAT 29 Aug 11:38:34 11:41:34 21° 92° (E) 11:44:36 437.505
POPSAT HIP 1 29 Aug 11:40:36 11:44:52 84° 256° (WSW) 11:49:11 437.405
DUCHIFAT 1 29 Aug 11:43:40 11:47:54 82° 255° (WSW) 11:52:12 145.980
CUTE 1.7 + AOD 2 29 Aug 11:47:29 11:49:37 13° 302° (WNW) 11:51:37 437.475
ESTCUBE 1 29 Aug 11:51:01 11:54:21 21° 91° (E) 11:57:47 437.505/2401.250
YUBILEINY 29 Aug 11:52:18 11:56:58 15° 289° (WNW) 12:01:07 435.215
QB50P2 29 Aug 11:56:57 12:01:09 56° 260° (W) 12:05:24 145.880/145.840
CUSAT 1 29 Aug 11:59:56 12:07:15 89° 259° (W) 12:15:32 437.405
NANOSAT C BR1 29 Aug 12:00:16 12:04:26 54° 260° (W) 12:08:38 145.865
Oscar 19 29 Aug 12:00:30 12:02:57 14° 53° (NE) 12:05:36 437.125/150
TIGRISAT 29 Aug 12:01:28 12:05:24 26° 268° (W) 12:09:19 435.000
DX 1 29 Aug 12:03:27 12:07:43 49° 100° (E) 12:12:00 434.975-435.025
BUGSAT 1 29 Aug 12:03:52 12:07:56 77° 256° (WSW) 12:12:06 437.445
DANDE 29 Aug 12:07:08 12:14:04 78° 76° (ENE) 12:22:26 436.750
AUBIESAT-1 29 Aug 12:07:16 12:10:27 17° 266° (W) 12:13:28 437.475
M-CUBED/EXP-1 PRIME 29 Aug 12:10:23 12:13:08 15° 268° (W) 12:15:41 437.505
QB50P1 29 Aug 12:12:57 12:16:58 40° 262° (W) 12:21:01 145.935-145.965
AISAT 29 Aug 12:14:07 12:18:24 44° 98° (E) 12:22:43 437.250
DELFI C3 29 Aug 12:14:23 12:17:54 30° 293° (WNW) 12:21:22 145.870
Oscar 11 29 Aug 12:16:49 12:20:18 23° 296° (WNW) 12:23:40 145.826/435.025
HO-68 29 Aug 12:18:08 12:23:41 24° 309° (NW) 12:29:06 435.675
ANTELSAT 29 Aug 12:18:14 12:21:32 18° 272° (W) 12:24:44 437.575/2403.000
UKube-1 29 Aug 12:20:30 12:24:50 66° 102° (ESE) 12:29:09 .
CUBEBUG 1 29 Aug 12:23:32 12:27:34 34° 96° (E) 12:31:37 437.445
HUMSAT D 29 Aug 12:25:20 12:29:33 57° 288° (WNW) 12:33:41 437.325/437.525
SO-50 29 Aug 12:26:58 12:30:11 17° 249° (WSW) 12:33:12 436.795
SPROUT 29 Aug 12:31:04 12:33:26 15° 87° (E) 12:35:58 437.525
CINEMA 3 29 Aug 12:33:51 12:35:45 12° 307° (NW) 12:37:26 145.822/145.860
CUBEBUG 2 29 Aug 12:42:03 12:44:57 16° 302° (WNW) 12:47:42 437.445
VELOX 1 29 Aug 12:43:05 12:47:35 80° 103° (ESE) 12:52:03 145.980
GONETS M04 29 Aug 12:43:26 12:49:23 20° 50° (NE) 12:55:41
Cosmos 2491 29 Aug 12:45:15 12:51:37 21° 309° (NW) 12:57:40 435.465 / 435.565
ITAMSAT 1 29 Aug 12:54:07 12:55:50 12° 51° (NE) 12:57:45 435.822/435.867
ZACube-1 29 Aug 12:54:09 12:57:11 17° 301° (WNW) 13:00:06 437.345
ISS 29 Aug 12:54:10 12:57:24 70° 347° (NNW) 13:00:40 145.825
UWE-3 29 Aug 12:55:05 12:57:43 15° 303° (WNW) 13:00:10 435.000/436.395/437.385
Cosmos 2504 29 Aug 12:59:39 13:07:07 34° 277° (W) 13:14:07 435.465 / 435.565
FUNcube-1 29 Aug 13:01:03 13:03:50 16° 301° (WNW) 13:06:28 145.935
JAS-2 29 Aug 13:09:51 13:14:41 19° 47° (NE) 13:19:46 435.910
50 SAT 29 Aug 13:12:36 13:16:15 38° 291° (WNW) 13:19:50 437.505
POLYITAN 1 29 Aug 13:16:31 13:17:45 11° 276° (W) 13:18:45 437.675
PCSat 29 Aug 13:18:34 13:22:55 24° 250° (WSW) 13:27:08 145.827
POPSAT HIP 1 29 Aug 13:21:10 13:21:32 10° 276° (W) 13:21:38 437.405
ESTCUBE 1 29 Aug 13:27:10 13:31:32 51° 290° (WNW) 13:35:54 437.505/2401.250
Cosmos 2499 29 Aug 13:33:10 13:36:21 12° 39° (NE) 13:39:55 435.465 / 435.565
AO-7 29 Aug 13:34:29 13:39:37 19° 38° (NE) 13:45:01 29.400- 29.500
Oscar 19 29 Aug 13:36:21 13:41:30 71° 71° (ENE) 13:46:42 437.125/150
DX 1 29 Aug 13:40:16 13:43:42 22° 298° (WNW) 13:47:02 434.975-435.025
CUSAT 1 29 Aug 13:43:34 13:49:14 23° 275° (W) 13:55:05 437.405
TISAT 1 29 Aug 13:44:49 13:48:55 44° 98° (E) 13:53:02 437.305
SWISSCUBE 29 Aug 13:45:30 13:45:58 10° 83° (E) 13:46:42 437.505
DANDE 29 Aug 13:51:00 13:56:53 27° 272° (W) 14:03:20 436.750
AISAT 29 Aug 13:51:04 13:54:47 25° 297° (WNW) 13:58:25 437.250
Gurwin Techsat 1B 29 Aug 13:55:58 14:00:50 39° 66° (ENE) 14:05:46 435.225
UKube-1 29 Aug 13:57:37 14:00:33 17° 300° (WNW) 14:03:20 .
CUBEBUG 1 29 Aug 13:59:59 14:03:53 30° 294° (WNW) 14:07:43 437.445
SPROUT 29 Aug 14:05:42 14:10:03 70° 287° (WNW) 14:14:22 437.525
ITUPSAT 1 29 Aug 14:20:13 14:23:41 20° 90° (E) 14:27:16 437.325
VELOX 1 29 Aug 14:20:54 14:23:36 16° 302° (WNW) 14:26:10 145.980
ITAMSAT 1 29 Aug 14:29:20 14:34:25 60° 70° (ENE) 14:39:32 435.822/435.867
ISS 29 Aug 14:30:45 14:34:00 63° 8° (N) 14:37:14 145.825
GONETS M04 29 Aug 14:39:25 14:48:14 72° 77° (ENE) 14:57:03
JAS-2 29 Aug 14:50:49 14:58:21 61° 68° (ENE) 15:06:05 435.910
BEESAT 29 Aug 14:54:34 14:59:04 41° 98° (E) 15:03:34 436.000
KKS-1 29 Aug 15:13:11 15:14:52 12° 85° (E) 15:16:48 437.445
Oscar 19 29 Aug 15:17:48 15:21:27 19° 272° (W) 15:24:59 437.125/150
SWISSCUBE 29 Aug 15:19:59 15:24:46 75° 103° (ESE) 15:29:32 437.505
TISAT 1 29 Aug 15:21:02 15:24:28 23° 297° (WNW) 15:27:49 437.305
AO-7 29 Aug 15:22:47 15:30:51 57° 61° (ENE) 15:38:58 29.400- 29.500
Cosmos 2499 29 Aug 15:24:21 15:32:39 44° 66° (ENE) 15:40:36 435.465 / 435.565
HORYU 2 29 Aug 15:25:24 15:29:15 29° 64° (ENE) 15:33:09 437.375
RS-15 29 Aug 15:28:02 15:33:44 17° 97° (E) 15:40:15 29.354- 29.394
Gurwin Techsat 1B 29 Aug 15:35:59 15:40:52 36° 264° (W) 15:45:46 435.225
SPROUT 29 Aug 15:44:20 15:45:23 11° 305° (NW) 15:46:14 437.525
ITUPSAT 1 29 Aug 15:57:18 16:02:00 58° 289° (WNW) 16:06:40 437.325
ISS 29 Aug 16:07:13 16:10:23 49° 207° (SSW) 16:13:32 145.825
ITAMSAT 1 29 Aug 16:10:18 16:14:22 22° 270° (W) 16:18:19 435.822/435.867
BEESAT 29 Aug 16:32:40 16:36:48 29° 296° (WNW) 16:40:51 436.000
STARS 29 Aug 16:35:42 16:40:00 45° 99° (E) 16:44:17 437.465
JAS-2 29 Aug 16:36:42 16:43:45 37° 269° (W) 16:50:55 435.910
GONETS M04 29 Aug 16:37:04 16:44:27 31° 278° (W) 16:51:40
BEESAT 3 29 Aug 16:38:08 16:42:06 53° 124° (SE) 16:46:06 437.485
CUTE-I 29 Aug 16:38:15 16:39:50 11° 50° (NE) 16:41:38 437.470
MOZHAYETS 4 29 Aug 16:42:24 16:45:09 16° 87° (E) 16:48:03
BEESAT 2 29 Aug 16:46:21 16:50:18 49° 123° (ESE) 16:54:18 435.950
KKS-1 29 Aug 16:47:42 16:52:15 88° 281° (W) 16:56:45 437.445
SWISSCUBE 29 Aug 16:58:54 17:02:07 18° 302° (WNW) 17:05:13 437.505
HORYU 2 29 Aug 17:01:33 17:05:46 38° 263° (W) 17:10:00 437.375
AIST 2 29 Aug 17:06:05 17:09:09 20° 115° (ESE) 17:12:19 435.215
AO-7 29 Aug 17:16:08 17:23:58 42° 263° (W) 17:31:45 29.400- 29.500
Cosmos 2499 29 Aug 17:17:38 17:26:08 53° 270° (W) 17:34:03 435.465 / 435.565
Cubesat XI-IV 29 Aug 17:29:02 17:33:22 27° 61° (ENE) 17:37:48 437.490
RS-15 29 Aug 17:33:11 17:43:53 65° 120° (ESE) 17:55:07 29.354- 29.394
ITUPSAT 1 29 Aug 17:38:14 17:38:59 10° 308° (NW) 17:39:31 437.325
ISS 29 Aug 17:45:29 17:46:12 10° 224° (SW) 17:46:48 145.825
STARS 29 Aug 18:12:34 18:16:14 25° 297° (WNW) 18:19:48 437.465
CUTE-I 29 Aug 18:13:44 18:18:55 56° 69° (ENE) 18:24:09 437.470
BRITE-PL 29 Aug 18:16:29 18:17:49 11° 53° (NE) 18:19:21 437.365/2234.400
BEESAT 3 29 Aug 18:16:44 18:20:16 27° 324° (NW) 18:23:48 437.485
MOZHAYETS 4 29 Aug 18:18:21 18:22:55 68° 287° (WNW) 18:27:26
BEESAT 2 29 Aug 18:24:55 18:28:33 29° 324° (NW) 18:32:10 435.950
KKS-1 29 Aug 18:25:53 18:28:15 14° 303° (WNW) 18:30:27 437.445
CUBESAT XI-V 29 Aug 18:28:49 18:31:59 18° 89° (E) 18:35:17 437.345
AIST 2 29 Aug 18:43:08 18:47:21 62° 313° (NW) 18:51:36 435.215
Cosmos 2491 29 Aug 18:53:00 18:58:50 20° 50° (NE) 19:05:01 435.465 / 435.565
GOMX 1 29 Aug 18:56:24 18:59:14 17° 57° (ENE) 19:02:17 467.674
STRAND 1 29 Aug 18:58:10 18:58:55 10° 82° (E) 18:59:59 437.568
Cubesat XI-IV 29 Aug 19:07:58 19:13:12 56° 260° (W) 19:18:27 437.490
Cosmos 2499 29 Aug 19:14:15 19:17:18 12° 292° (WNW) 19:19:45 435.465 / 435.565
HO-68 29 Aug 19:16:23 19:22:11 28° 54° (NE) 19:28:08 435.675
DOVE 4 29 Aug 19:21:41 19:24:47 18° 58° (ENE) 19:28:08 437.250
CUTE 1.7 + AOD 2 29 Aug 19:33:19 19:35:38 15° 59° (ENE) 19:38:04 437.475
RS-15 29 Aug 19:45:55 19:56:47 55° 327° (NNW) 20:08:10 29.354- 29.394
CANX-2 29 Aug 19:45:58 19:49:06 20° 63° (ENE) 19:52:19 2200.000
BRITE-PL 29 Aug 19:51:06 19:55:26 70° 73° (ENE) 20:00:09 437.365/2234.400
CUTE-I 29 Aug 19:55:03 19:59:24 25° 269° (W) 20:03:40 437.470
MOZHAYETS 4 29 Aug 19:57:58 19:59:22 11° 305° (NW) 20:00:34
BEESAT 3 29 Aug 19:58:18 19:59:30 11° 347° (NNW) 20:00:40 437.485
PRISM 29 Aug 19:58:55 20:02:13 23° 93° (E) 20:05:34 437.425
AIST 1 29 Aug 19:58:57 20:03:16 72° 77° (ENE) 20:07:36
O/OREOS (USA 219) 29 Aug 20:04:59 20:09:15 42° 109° (ESE) 20:13:37 437.305
CUBESAT XI-V 29 Aug 20:05:18 20:09:52 61° 289° (WNW) 20:14:27 437.345
BEESAT 2 29 Aug 20:06:26 20:07:52 11° 346° (NNW) 20:09:14 435.950
SEEDS 29 Aug 20:11:23 20:14:53 26° 65° (ENE) 20:18:26 437.485
CINEMA 3 29 Aug 20:23:48 20:27:51 29° 64° (ENE) 20:32:07 145.822/145.860
AIST 2 29 Aug 20:23:52 20:26:44 17° 335° (NNW) 20:29:34 435.215
CUBEBUG 2 29 Aug 20:31:26 20:34:34 19° 60° (ENE) 20:37:53 437.445
GOMX 1 29 Aug 20:32:11 20:36:42 81° 257° (WSW) 20:41:36 467.674
STRAND 1 29 Aug 20:34:05 20:39:12 71° 103° (ESE) 20:44:18 437.568
COMPASS 1 29 Aug 20:36:57 20:40:46 35° 68° (ENE) 20:44:38 437.405
ZACube-1 29 Aug 20:42:48 20:45:16 15° 58° (ENE) 20:47:54 437.345
UWE-3 29 Aug 20:43:26 20:46:36 19° 60° (ENE) 20:49:54 435.000/436.395/437.385
Cosmos 2491 29 Aug 20:48:59 20:57:44 71° 76° (ENE) 21:06:30 435.465 / 435.565
FUNcube-1 29 Aug 20:49:00 20:51:44 16° 59° (ENE) 20:54:37 145.935
AAUSAT CUBESAT 2 29 Aug 20:49:12 20:53:06 39° 69° (ENE) 20:57:03 437.432
DOVE 4 29 Aug 20:57:21 21:01:57 75° 258° (WSW) 21:06:54 437.250
HO-68 29 Aug 21:02:09 21:09:20 79° 254° (WSW) 21:16:35 435.675
YUBILEINY 29 Aug 21:03:40 21:11:08 34° 83° (E) 21:18:49 435.215
CUTE 1.7 + AOD 2 29 Aug 21:06:43 21:11:01 79° 257° (WSW) 21:15:20 437.475
CANX-2 29 Aug 21:20:30 21:24:43 52° 261° (W) 21:28:56 2200.000
DELFI C3 29 Aug 21:30:23 21:34:00 33° 68° (ENE) 21:37:40 145.870
DX 1 29 Aug 21:30:25 21:31:48 12° 55° (NE) 21:33:21 434.975-435.025
BRITE-PL 29 Aug 21:32:02 21:34:42 15° 275° (W) 21:37:18 437.365/2234.400
PRISM 29 Aug 21:33:58 21:37:47 38° 292° (WNW) 21:41:36 437.425
AIST 1 29 Aug 21:38:15 21:40:24 13° 276° (W) 21:42:24
BEESAT 3 29 Aug 21:38:17 21:39:10 11° 11° (N) 21:40:07 437.485
Oscar 11 29 Aug 21:38:51 21:43:08 60° 73° (ENE) 21:47:27 145.826/435.025
AISAT 29 Aug 21:43:32 21:44:24 11° 54° (NE) 21:45:28 437.250
O/OREOS (USA 219) 29 Aug 21:44:50 21:48:51 29° 310° (NW) 21:52:52 437.305
UKube-1 29 Aug 21:45:46 21:48:01 14° 58° (ENE) 21:50:25 .
CUBESAT XI-V 29 Aug 21:45:55 21:46:28 10° 306° (NW) 21:46:48 437.345
HUMSAT D 29 Aug 21:46:17 21:49:37 23° 63° (ENE) 21:53:02 437.325/437.525
SEEDS 29 Aug 21:46:31 21:50:31 38° 263° (W) 21:54:31 437.485
BEESAT 2 29 Aug 21:46:46 21:47:40 11° 10° (N) 21:48:35 435.950
CINEMA 3 29 Aug 22:00:26 22:04:53 42° 264° (W) 22:09:33 145.822/145.860
RS-15 29 Aug 22:01:49 22:12:12 38° 360° (N) 22:23:02 29.354- 29.394
CUBEBUG 2 29 Aug 22:06:07 22:10:45 71° 259° (WSW) 22:15:32 437.445
AIST 2 29 Aug 22:06:22 22:06:57 10° 359° (N) 22:07:32 435.215
VELOX 1 29 Aug 22:10:12 22:13:03 17° 59° (ENE) 22:16:00 145.980
COMPASS 1 29 Aug 22:12:53 22:16:30 27° 267° (W) 22:20:05 437.405
STRAND 1 29 Aug 22:14:10 22:17:57 21° 302° (WNW) 22:21:37 437.568
GOMX 1 29 Aug 22:14:42 22:15:54 11° 279° (W) 22:16:52 467.674
ZACube-1 29 Aug 22:16:26 22:21:00 88° 256° (WSW) 22:25:38 437.345
UWE-3 29 Aug 22:18:03 22:22:39 68° 259° (WSW) 22:27:21 435.000/436.395/437.385
FUNcube-1 29 Aug 22:22:56 22:27:29 80° 257° (WSW) 22:32:08 145.935
AAUSAT CUBESAT 2 29 Aug 22:25:24 22:28:52 24° 268° (W) 22:32:14 437.432
50 SAT 29 Aug 22:26:04 22:29:13 23° 65° (ENE) 22:32:27 437.505
ANTELSAT 29 Aug 22:30:53 22:30:54 10° 82° (E) 22:31:12 437.575/2403.000
DOVE 4 29 Aug 22:40:09 22:40:49 10° 280° (W) 22:41:13 437.250
Cosmos 2491 29 Aug 22:46:36 22:53:59 31° 278° (W) 23:01:11 435.465 / 435.565
HO-68 29 Aug 22:53:47 22:58:24 17° 276° (W) 23:02:42 435.675
ESTCUBE 1 29 Aug 22:54:37 22:58:35 32° 66° (ENE) 23:02:37 437.505/2401.250
YUBILEINY 29 Aug 22:58:44 23:07:29 66° 285° (WNW) 23:16:18 435.215
DX 1 29 Aug 23:03:01 23:07:21 75° 73° (ENE) 23:11:43 434.975-435.025
DELFI C3 29 Aug 23:05:37 23:09:06 27° 266° (W) 23:12:34 145.870
BEESAT 3 29 Aug 23:15:04 23:18:28 25° 34° (NE) 23:21:50 437.485
AISAT 29 Aug 23:15:50 23:20:12 67° 72° (ENE) 23:24:37 437.250
Oscar 11 29 Aug 23:16:50 23:19:45 17° 271° (W) 23:22:32 145.826/435.025
UNISAT 6 29 Aug 23:18:39 23:22:41 29° 93° (E) 23:26:40 437.425
UKube-1 29 Aug 23:19:16 23:23:36 83° 257° (WSW) 23:27:57 .
POLYITAN 1 29 Aug 23:19:54 23:21:19 12° 85° (E) 23:22:57 437.675
HUMSAT D 29 Aug 23:20:54 23:25:05 47° 261° (W) 23:29:18 437.325/437.525
POPSAT HIP 1 29 Aug 23:23:12 23:24:53 12° 86° (E) 23:26:47 437.405
CUBEBUG 1 29 Aug 23:23:42 23:27:51 48° 70° (ENE) 23:32:04 437.445
BEESAT 2 29 Aug 23:23:43 23:27:06 24° 33° (NNE) 23:30:28 435.950
DUCHIFAT 1 29 Aug 23:25:40 23:27:26 12° 86° (E) 23:29:23 145.980
SPROUT 29 Aug 23:29:11 23:32:21 21° 62° (ENE) 23:35:36 437.525
QB50P2 29 Aug 23:38:35 23:41:32 18° 90° (E) 23:44:35 145.880/145.840
NANOSAT C BR1 29 Aug 23:41:24 23:44:22 18° 90° (E) 23:47:26 145.865
Cosmos 2504 29 Aug 23:41:46 23:49:18 45° 87° (E) 23:57:19 435.465 / 435.565
AUBIESAT-1 29 Aug 23:42:26 23:45:51 25° 98° (E) 23:49:04 437.475
BUGSAT 1 29 Aug 23:43:23 23:45:00 12° 86° (E) 23:46:50 437.445
AIST 2 29 Aug 23:44:37 23:47:13 16° 23° (NNE) 23:49:51 435.215
VELOX 1 29 Aug 23:44:45 23:49:08 68° 258° (WSW) 23:53:34 145.980
M-CUBED/EXP-1 PRIME 29 Aug 23:45:21 23:49:06 32° 100° (E) 23:52:35 437.505
TIGRISAT 29 Aug 23:47:53 23:52:26 52° 99° (E) 23:56:52 435.000
QB50P1 29 Aug 23:53:44 23:57:15 24° 93° (E) 00:00:48 145.935-145.965
ZACube-1 29 Aug 23:56:16 23:58:08 12° 276° (W) 23:59:46 437.345
50 SAT 29 Aug 23:59:52 00:03:35 37° 263° (W) 00:07:18 437.505
FUNcube-1 30 Aug 00:03:37 00:04:41 11° 277° (W) 00:05:29 145.935
ANTELSAT 30 Aug 00:03:58 00:08:38 77° 104° (ESE) 00:13:09 437.575/2403.000
RS-15 30 Aug 00:16:24 00:27:43 54° 32° (NNE) 00:39:33 29.354- 29.394
BEESAT 30 Aug 00:30:37 00:32:45 13° 55° (NE) 00:35:04 436.000
ESTCUBE 1 30 Aug 00:31:22 00:35:27 33° 265° (W) 00:39:31 437.505/2401.250
TISAT 1 30 Aug 00:40:49 00:44:56 58° 72° (ENE) 00:49:07 437.305
DX 1 30 Aug 00:41:55 00:44:12 14° 273° (W) 00:46:18 434.975-435.025
BEESAT 3 30 Aug 00:52:41 00:56:42 60° 235° (SW) 01:00:38 437.485
POLYITAN 1 30 Aug 00:53:34 00:57:55 87° 288° (WNW) 01:02:14 437.675
SWISSCUBE 30 Aug 00:54:32 00:58:05 22° 60° (ENE) 01:01:44 437.505
AISAT 30 Aug 00:54:33 00:57:18 16° 272° (W) 00:59:55 437.250
UNISAT 6 30 Aug 00:55:14 00:59:32 37° 293° (WNW) 01:03:43 437.425
POPSAT HIP 1 30 Aug 00:57:04 01:01:25 82° 285° (WNW) 01:05:43 437.405
DUCHIFAT 1 30 Aug 00:59:33 01:03:52 80° 286° (WNW) 01:08:09 145.980
UKube-1 30 Aug 01:00:01 01:00:31 10° 276° (W) 01:00:46 .
YUBILEINY 30 Aug 01:00:37 01:06:32 18° 312° (NW) 01:12:09 435.215
CUBEBUG 1 30 Aug 01:01:12 01:04:30 21° 269° (W) 01:07:44 437.445
BEESAT 2 30 Aug 01:01:26 01:05:29 65° 235° (SW) 01:09:28 435.950
SPROUT 30 Aug 01:03:54 01:08:06 52° 260° (W) 01:12:21 437.525
CUSAT 1 30 Aug 01:12:12 01:16:07 72° 99° (E) 01:21:27 437.405
QB50P2 30 Aug 01:13:34 01:17:48 55° 289° (WNW) 01:22:00 145.880/145.840
NANOSAT C BR1 30 Aug 01:16:21 01:20:33 54° 289° (WNW) 01:24:44 145.865
BUGSAT 1 30 Aug 01:16:50 01:21:06 82° 285° (WNW) 01:25:22 437.445
AUBIESAT-1 30 Aug 01:16:52 01:20:41 35° 299° (WNW) 01:24:11 437.475
M-CUBED/EXP-1 PRIME 30 Aug 01:20:08 01:23:50 29° 301° (WNW) 01:27:15 437.505
AIST 2 30 Aug 01:22:33 01:26:42 54° 45° (NE) 01:30:47 435.215
DANDE 30 Aug 01:24:50 01:28:16 57° 96° (E) 01:32:54 436.750
TIGRISAT 30 Aug 01:25:12 01:28:52 23° 298° (WNW) 01:32:22 435.000
QB50P1 30 Aug 01:29:12 01:33:15 40° 292° (WNW) 01:37:16 145.935-145.965
ITUPSAT 1 30 Aug 01:30:55 01:35:18 38° 67° (ENE) 01:39:45 437.325
Cosmos 2504 30 Aug 01:33:32 01:41:30 51° 290° (WNW) 01:49:49 435.465 / 435.565
ANTELSAT 30 Aug 01:41:52 01:44:51 17° 302° (WNW) 01:47:40 437.575/2403.000
Oscar 19 30 Aug 01:44:26 01:47:55 18° 88° (E) 01:51:32 437.125/150
GONETS M04 30 Aug 01:54:05 01:58:42 16° 73° (ENE) 02:03:49
STARS 30 Aug 02:04:09 02:05:13 11° 54° (NE) 02:06:28 437.465
BEESAT 30 Aug 02:05:06 02:09:52 77° 74° (ENE) 02:14:40 436.000
Gurwin Techsat 1B 30 Aug 02:11:07 02:11:08 10° 81° (E) 02:11:29 435.225
KKS-1 30 Aug 02:14:53 02:18:07 20° 61° (ENE) 02:21:28 437.445
TISAT 1 30 Aug 02:18:19 02:21:07 17° 271° (W) 02:23:49 437.305
PCSat 30 Aug 02:21:34 02:25:42 23° 110° (ESE) 02:30:00 145.827
RS-15 30 Aug 02:29:15 02:40:54 70° 238° (WSW) 02:52:56 29.354- 29.394
SWISSCUBE 30 Aug 02:30:52 02:35:35 60° 259° (W) 02:40:19 437.505
POLYITAN 1 30 Aug 02:31:11 02:33:11 13° 303° (WNW) 02:35:02 437.675
POPSAT HIP 1 30 Aug 02:34:49 02:36:37 12° 303° (WNW) 02:38:16 437.405
DUCHIFAT 1 30 Aug 02:37:19 02:39:00 12° 303° (WNW) 02:40:30 145.980
ITAMSAT 1 30 Aug 02:39:03 02:41:51 15° 86° (E) 02:44:53 435.822/435.867
SO-50 30 Aug 02:43:21 02:48:06 61° 125° (SE) 02:53:00 436.795
BUGSAT 1 30 Aug 02:54:14 02:55:56 12° 303° (WNW) 02:57:26 437.445
CUSAT 1 30 Aug 02:56:47 02:59:45 17° 309° (NW) 03:03:05 437.405
AIST 2 30 Aug 03:01:39 03:04:58 23° 244° (WSW) 03:08:11 435.215
ITUPSAT 1 30 Aug 03:09:02 03:13:17 31° 265° (W) 03:17:31 437.325
DANDE 30 Aug 03:09:41 03:12:15 16° 307° (NW) 03:15:08 436.750
Oscar 19 30 Aug 03:22:40 03:27:54 73° 288° (WNW) 03:33:05 437.125/150
AO-7 30 Aug 03:22:57 03:24:45 11° 77° (ENE) 03:27:13 29.400- 29.500
Cosmos 2504 30 Aug 03:32:01 03:36:23 14° 317° (NW) 03:40:25 435.465 / 435.565
STARS 30 Aug 03:36:30 03:40:53 69° 73° (ENE) 03:45:19 437.465
JAS-2 30 Aug 03:41:47 03:48:23 37° 91° (E) 03:54:23 435.910
BEESAT 30 Aug 03:45:27 03:48:21 15° 273° (W) 03:51:05 436.000
GONETS M04 30 Aug 03:45:29 03:54:03 70° 95° (E) 04:02:45
Gurwin Techsat 1B 30 Aug 03:46:59 03:52:18 66° 101° (ESE) 03:57:36 435.225
MOZHAYETS 4 30 Aug 03:48:11 03:51:58 26° 64° (ENE) 03:55:49
KKS-1 30 Aug 03:50:01 03:54:24 57° 259° (W) 03:58:50 437.445
PCSat 30 Aug 04:03:18 04:08:42 69° 309° (NW) 04:14:09 145.827
Cosmos 2499 30 Aug 04:06:34 04:13:31 30° 81° (E) 04:20:57 435.465 / 435.565
ITAMSAT 1 30 Aug 04:16:57 04:22:11 87° 281° (W) 04:27:22 435.822/435.867
SO-50 30 Aug 04:24:35 04:29:00 32° 326° (NW) 04:33:28 436.795
O/OREOS (USA 219) 30 Aug 04:31:25 04:35:23 27° 50° (NE) 04:39:22 437.305
RS-15 30 Aug 04:43:27 04:51:30 20° 261° (W) 04:59:01 29.354- 29.394
HORYU 2 30 Aug 04:48:14 04:52:09 29° 94° (E) 04:56:05 437.375
Oscar 19 30 Aug 05:03:42 05:06:27 14° 307° (NW) 05:09:02 437.125/150
AO-7 30 Aug 05:11:46 05:19:53 54° 101° (ESE) 05:27:58 29.400- 29.500
STARS 30 Aug 05:15:09 05:17:52 15° 272° (W) 05:20:26 437.465
MOZHAYETS 4 30 Aug 05:24:35 05:29:01 44° 262° (W) 05:33:26
JAS-2 30 Aug 05:26:38 05:33:47 53° 294° (WNW) 05:40:06 435.910
Gurwin Techsat 1B 30 Aug 05:27:43 05:31:53 23° 301° (WNW) 05:35:56 435.225
CUBESAT XI-V 30 Aug 05:36:13 05:40:10 29° 65° (ENE) 05:44:10 437.345
GONETS M04 30 Aug 05:44:03 05:51:46 33° 299° (WNW) 05:59:23
PCSat 30 Aug 05:49:04 05:53:09 21° 332° (NNW) 05:57:11 145.827
Cosmos 2499 30 Aug 05:57:27 06:06:00 75° 283° (WNW) 06:14:56 435.465 / 435.565
ITAMSAT 1 30 Aug 05:57:46 06:01:01 17° 305° (NW) 06:04:06 435.822/435.867
SO-50 30 Aug 06:08:03 06:11:01 15° 350° (N) 06:13:58 436.795
O/OREOS (USA 219) 30 Aug 06:10:36 06:15:03 47° 250° (WSW) 06:19:26 437.305
STRAND 1 30 Aug 06:16:30 06:20:38 26° 61° (ENE) 06:24:51 437.568
HORYU 2 30 Aug 06:24:44 06:28:52 36° 293° (WNW) 06:32:54 437.375
CUTE-I 30 Aug 06:27:33 06:30:35 16° 86° (E) 06:33:50 437.470
VERMONT LUNAR 30 Aug 06:34:39 06:36:12 13° 172° (S) 06:37:47 437.305
PRISM 30 Aug 06:52:53 06:56:30 31° 67° (ENE) 07:00:10 437.425
AO-7 30 Aug 07:04:51 07:12:38 45° 303° (WNW) 07:20:18 29.400- 29.500
YUBILEINY 30 Aug 07:07:13 07:13:44 23° 53° (NE) 07:20:31 435.215
CUBESAT XI-V 30 Aug 07:13:13 07:17:31 38° 264° (W) 07:21:49 437.345
JAS-2 30 Aug 07:13:17 07:17:14 15° 317° (NW) 07:20:45 435.910
Cubesat XI-IV 30 Aug 07:20:39 07:25:41 42° 97° (E) 07:30:45 437.490
PCSat 30 Aug 07:36:29 07:38:42 12° 358° (N) 07:40:55 145.827
SO-50 30 Aug 07:50:17 07:53:26 17° 14° (NNE) 07:56:38 436.795
BRITE-PL 30 Aug 07:51:13 07:55:09 21° 88° (E) 07:59:22 437.365/2234.400
Cosmos 2499 30 Aug 07:54:34 08:01:03 22° 309° (NW) 08:07:22 435.465 / 435.565
STRAND 1 30 Aug 07:54:36 07:59:35 53° 260° (W) 08:04:36 437.568
